Hourly Weather Bocas del Toro

Today, 5 July, Sunday

Time Temperature Precipitation Wind Pressure Humidity
00:00 +28°C° 0.3 mm 3 mps 758 mmHg 85%
01:00 +28°C° 0.3 mm 3 mps 758 mmHg 85%
02:00 +27°C° 0 mm 3 mps 758 mmHg 85%
03:00 +27°C° 0 mm 3 mps 757 mmHg 85%
04:00 +27°C° 0 mm 3 mps 757 mmHg 85%
05:00 +27°C° 0 mm 2 mps 757 mmHg 84%
06:00 +27°C° 0 mm 2 mps 757 mmHg 84%
07:00 +27°C° 0 mm 2 mps 758 mmHg 84%
08:00 +28°C° 0 mm 2 mps 758 mmHg 79%
09:00 +29°C° 0 mm 2 mps 758 mmHg 75%
10:00 +31°C° 0 mm 1 mps 758 mmHg 70%
11:00 +31°C° 0.1 mm 2 mps 758 mmHg 71%
12:00 +31°C° 0.1 mm 3 mps 758 mmHg 71%
13:00 +31°C° 0.1 mm 3 mps 758 mmHg 72%
14:00 +31°C° 0.7 mm 3 mps 757 mmHg 74%
15:00 +31°C° 0.7 mm 3 mps 757 mmHg 75%
16:00 +31°C° 0.7 mm 3 mps 756 mmHg 77%
17:00 +30°C° 1.7 mm 2 mps 757 mmHg 80%
18:00 +29°C° 1.7 mm 2 mps 757 mmHg 83%
19:00 +29°C° 1.7 mm 2 mps 757 mmHg 85%
20:00 +29°C° 1.7 mm 1 mps 758 mmHg 85%
21:00 +28°C° 1.7 mm 1 mps 758 mmHg 85%
22:00 +28°C° 1.7 mm 1 mps 759 mmHg 85%
23:00 +28°C° 0.3 mm 1 mps 759 mmHg 86%

Tomorrow, 6 July, Monday

Time Temperature Precipitation Wind Pressure Humidity
00:00 +28°C° 0.3 mm 1 mps 759 mmHg 86%
01:00 +27°C° 0.3 mm 1 mps 759 mmHg 87%
02:00 +27°C° 0.1 mm 1 mps 758 mmHg 87%
03:00 +27°C° 0.1 mm 1 mps 758 mmHg 87%
04:00 +27°C° 0.1 mm 1 mps 757 mmHg 86%
05:00 +27°C° 0.2 mm 2 mps 758 mmHg 86%
06:00 +27°C° 0.2 mm 2 mps 758 mmHg 86%
07:00 +27°C° 0.2 mm 2 mps 759 mmHg 86%
08:00 +28°C° 0.5 mm 2 mps 759 mmHg 83%
09:00 +29°C° 0.5 mm 3 mps 759 mmHg 81%
10:00 +30°C° 0.5 mm 3 mps 759 mmHg 78%
11:00 +30°C° 1 mm 3 mps 759 mmHg 77%
12:00 +30°C° 1 mm 3 mps 759 mmHg 76%
13:00 +31°C° 1 mm 2 mps 759 mmHg 75%
14:00 +31°C° 0.8 mm 2 mps 758 mmHg 75%
15:00 +30°C° 0.8 mm 2 mps 758 mmHg 74%
16:00 +30°C° 0.8 mm 2 mps 757 mmHg 74%
17:00 +30°C° 0.6 mm 2 mps 757 mmHg 76%
18:00 +29°C° 0.6 mm 2 mps 758 mmHg 78%
19:00 +28°C° 0.6 mm 2 mps 758 mmHg 80%
20:00 +28°C° 0.1 mm 2 mps 759 mmHg 81%
21:00 +28°C° 0.1 mm 2 mps 759 mmHg 82%
22:00 +27°C° 0.1 mm 2 mps 759 mmHg 83%
23:00 +27°C° 0.2 mm 2 mps 759 mmHg 83%

Day after tomorrow, 7 July, Tuesday

Time Temperature Precipitation Wind Pressure Humidity
00:00 +27°C° 0.2 mm 2 mps 759 mmHg 83%
01:00 +27°C° 0.2 mm 2 mps 759 mmHg 82%
02:00 +27°C° 0.2 mm 2 mps 759 mmHg 82%
03:00 +27°C° 0.2 mm 2 mps 758 mmHg 82%
04:00 +26°C° 0.2 mm 2 mps 758 mmHg 82%
05:00 +26°C° 0.2 mm 2 mps 758 mmHg 82%
06:00 +26°C° 0.2 mm 2 mps 758 mmHg 81%
07:00 +26°C° 0.2 mm 2 mps 759 mmHg 81%
08:00 +28°C° 0.3 mm 2 mps 759 mmHg 76%
09:00 +29°C° 0.3 mm 2 mps 759 mmHg 71%
10:00 +30°C° 0.3 mm 2 mps 759 mmHg 65%
11:00 +31°C° 0 mm 2 mps 759 mmHg 66%
12:00 +31°C° 0 mm 2 mps 759 mmHg 67%
13:00 +31°C° 0 mm 3 mps 758 mmHg 68%
14:00 +31°C° 0.1 mm 3 mps 758 mmHg 69%
15:00 +31°C° 0.1 mm 3 mps 757 mmHg 70%
16:00 +31°C° 0.1 mm 2 mps 757 mmHg 72%
17:00 +30°C° 0 mm 2 mps 757 mmHg 75%
18:00 +29°C° 0 mm 3 mps 757 mmHg 78%
19:00 +29°C° 0 mm 3 mps 758 mmHg 81%
20:00 +28°C° 0 mm 3 mps 758 mmHg 83%
21:00 +28°C° 0 mm 3 mps 758 mmHg 84%
22:00 +28°C° 0 mm 3 mps 759 mmHg 85%
23:00 +28°C° 0 mm 3 mps 758 mmHg 85%

8 July, Wednesday

Time Temperature Precipitation Wind Pressure Humidity
00:00 +27°C° 0 mm 3 mps 758 mmHg 85%
01:00 +27°C° 0 mm 3 mps 758 mmHg 85%
02:00 +27°C° 0 mm 3 mps 758 mmHg 84%
03:00 +27°C° 0 mm 3 mps 757 mmHg 83%
04:00 +27°C° 0 mm 3 mps 757 mmHg 82%
05:00 +27°C° 0 mm 3 mps 757 mmHg 80%
06:00 +27°C° 0 mm 3 mps 757 mmHg 79%
07:00 +27°C° 0 mm 3 mps 757 mmHg 78%
08:00 +27°C° 0.6 mm 2 mps 758 mmHg 76%
09:00 +28°C° 0.6 mm 2 mps 758 mmHg 73%
10:00 +29°C° 0.6 mm 2 mps 758 mmHg 71%
11:00 +29°C° 0.4 mm 2 mps 758 mmHg 71%
12:00 +29°C° 0.4 mm 1 mps 758 mmHg 72%
13:00 +30°C° 0.4 mm 1 mps 758 mmHg 72%
14:00 +29°C° 0.4 mm 1 mps 757 mmHg 75%
15:00 +29°C° 0.4 mm 1 mps 757 mmHg 78%
16:00 +29°C° 0.4 mm 1 mps 756 mmHg 81%
17:00 +28°C° 0.5 mm 1 mps 757 mmHg 83%
18:00 +28°C° 0.5 mm 1 mps 757 mmHg 84%
19:00 +28°C° 0.5 mm 1 mps 757 mmHg 86%
20:00 +28°C° 0.4 mm 2 mps 757 mmHg 86%
21:00 +28°C° 0.4 mm 2 mps 758 mmHg 87%
22:00 +28°C° 0.4 mm 3 mps 758 mmHg 87%
23:00 +28°C° 0.5 mm 3 mps 758 mmHg 86%

9 July, Thursday

Time Temperature Precipitation Wind Pressure Humidity
00:00 +28°C° 0.5 mm 4 mps 757 mmHg 86%
01:00 +27°C° 0.5 mm 4 mps 757 mmHg 86%
02:00 +27°C° 0.7 mm 4 mps 757 mmHg 85%
03:00 +27°C° 0.7 mm 3 mps 756 mmHg 85%
04:00 +27°C° 0.7 mm 3 mps 756 mmHg 84%
05:00 +27°C° 0.2 mm 3 mps 756 mmHg 83%
06:00 +27°C° 0.2 mm 3 mps 756 mmHg 83%
07:00 +27°C° 0.2 mm 2 mps 756 mmHg 82%
08:00 +28°C° 0.3 mm 3 mps 757 mmHg 81%
09:00 +28°C° 0.3 mm 4 mps 757 mmHg 81%
10:00 +29°C° 0.3 mm 5 mps 758 mmHg 80%
11:00 +30°C° 0.1 mm 5 mps 757 mmHg 76%
12:00 +32°C° 0.1 mm 5 mps 757 mmHg 71%
13:00 +33°C° 0.1 mm 6 mps 757 mmHg 67%
14:00 +32°C° 0.3 mm 6 mps 756 mmHg 71%
15:00 +32°C° 0.3 mm 6 mps 756 mmHg 75%
16:00 +30°C° 0.3 mm 7 mps 756 mmHg 79%
17:00 +29°C° 2 mm 6 mps 756 mmHg 83%
18:00 +28°C° 2 mm 6 mps 756 mmHg 87%
19:00 +27°C° 2 mm 5 mps 757 mmHg 91%
20:00 +27°C° 3.8 mm 5 mps 757 mmHg 92%
21:00 +26°C° 3.8 mm 4 mps 758 mmHg 94%
22:00 +26°C° 3.8 mm 4 mps 758 mmHg 95%
23:00 +26°C° 1.4 mm 4 mps 758 mmHg 93%

10 July, Friday

Time Temperature Precipitation Wind Pressure Humidity
00:00 +26°C° 1.4 mm 4 mps 758 mmHg 92%
01:00 +26°C° 1.4 mm 4 mps 758 mmHg 91%
02:00 +26°C° 0.1 mm 3 mps 757 mmHg 91%
03:00 +26°C° 0.1 mm 3 mps 757 mmHg 91%
04:00 +26°C° 0.1 mm 2 mps 757 mmHg 90%
05:00 +26°C° 0 mm 2 mps 757 mmHg 90%
06:00 +26°C° 0 mm 2 mps 757 mmHg 90%
07:00 +26°C° 0 mm 2 mps 758 mmHg 89%
08:00 +27°C° 0.1 mm 2 mps 758 mmHg 87%
09:00 +28°C° 0.1 mm 2 mps 758 mmHg 85%
10:00 +28°C° 0.1 mm 2 mps 759 mmHg 83%
11:00 +28°C° 0.8 mm 2 mps 759 mmHg 83%
12:00 +28°C° 0.8 mm 2 mps 758 mmHg 83%
13:00 +29°C° 0.8 mm 3 mps 758 mmHg 83%
14:00 +29°C° 0.4 mm 3 mps 758 mmHg 81%
15:00 +29°C° 0.4 mm 3 mps 757 mmHg 78%
16:00 +30°C° 0.4 mm 2 mps 757 mmHg 76%
17:00 +29°C° 0.4 mm 2 mps 757 mmHg 79%
18:00 +29°C° 0.4 mm 2 mps 758 mmHg 81%
19:00 +28°C° 0.4 mm 2 mps 758 mmHg 83%
20:00 +28°C° 0.3 mm 2 mps 758 mmHg 84%
21:00 +27°C° 0.3 mm 2 mps 759 mmHg 85%
22:00 +27°C° 0.3 mm 2 mps 759 mmHg 85%
23:00 +27°C° 0.3 mm 2 mps 759 mmHg 85%
Show more